Location: Topeka
(39.0480°N, 95.6780°W)
Time: 05:11:22
(UTC-05:00)

ISS - Pass Details

Date: 02 May 2018
Orbit: 402 x 407 km, 51.6° (Epoch: 26 May)

Event Time Altitude Azimuth Distance (km) Brightness Sun altitude
Exits shadow 05:06:34 19° 189° (S) 1,042 -2.1 -14.1°
Maximum altitude 05:08:23 33° 135° (SE) 697 -2.6 -13.8°
Drops below altitude 10° 05:11:21 10° 69° (ENE) 1,454 0.4 -13.3°
Sets 05:13:33 0° 59° (ENE) 2,317 2.1 -12.9°
